{"data":{"norad_id":67028,"intl_designator":"2025-293AB","name":"STARLINK-36132","alt_names":[],"object_type":"PAYLOAD","status":"ACTIVE","operator":null,"country":"US","launch_date":"2025-12-10","launch_site_code":"AFWTR","launch_vehicle":null,"mission":null,"orbit_class":"UNKNOWN","rcs_meters":null,"size_class":null,"mass_kg":null,"dimensions":null,"purposes":["comms"],"wikipedia_slug":null,"has_3d_model":false,"image_url":null,"decayed_at":null,"tle_current":{"epoch":"2026-05-25T01:20:39.342624Z","epoch_age_seconds":73696,"freshness":"FRESH","line1":"1 67028U 25293AB  26145.05601091  .00002360  00000+0  20547-3 0  9995","line2":"2 67028  70.0005 262.0286 0003370 269.8864  90.1909 14.98335726 26328","mean_motion":14.98335726,"eccentricity":0.000337,"inclination_deg":70.0005,"raan_deg":262.0286,"arg_perigee_deg":269.8864,"mean_anomaly_deg":90.1909,"bstar":0.00020547,"rev_number":2632,"period_min":96.106631845739,"perigee_km":569.6959747812,"apogee_km":574.38039285509,"semimajor_km":6950.1751838181,"source":"CELESTRAK","updated_at":"2026-05-25T13:38:21.435123Z"}}}